Theta_e
296 295 294 293 292 292 291 291 291 293 292 290 290 289 289 288 288 288 287 288 288 288 287 288 290 290 293 292 292 293 297 299 301 302 305 308 312 312
295 294 293 293 292 291 290 290 290 290 292 289 289 288 287 287 287 287 287 288 287 288 288 287 289 290 292 291 291 291 292 296 297 299 300 304 308 310
295 293 293 292 292 291 290 289 289 289 290 289 288 287 287 286 286 286 286 286 287 288 288 289 289 289 288 288 290 290 292 292 297 298 299 300 304 308
293 292 292 291 290 289 289 288 288 288 288 288 286 286 286 285 285 285 286 286 287 287 288 290 289 289 289 288 288 288 290 292 294 298 298 299 300 305
292 291 291 290 289 288 287 287 286 286 286 285 285 285 285 285 285 285 285 286 286 287 288 289 288 288 288 288 287 288 289 291 294 296 297 298 299 301
291 290 290 288 286 285 284 284 284 284 284 283 284 284 284 284 285 285 285 285 286 287 287 289 288 288 287 286 286 289 290 290 293 295 296 296 299 300
290 289 287 285 283 282 282 282 282 282 282 282 283 283 284 284 285 284 285 285 285 286 287 288 289 288 288 289 289 290 290 288 291 294 294 295 298 300
288 287 286 285 284 282 282 281 281 281 282 282 283 282 282 283 284 284 284 284 285 285 286 287 287 289 288 288 289 288 287 287 291 293 294 294 299 300
286 285 285 284 284 283 282 281 281 281 282 282 282 282 283 282 282 283 283 284 284 284 285 286 286 287 287 288 287 286 286 286 291 292 294 293 292 292
285 285 284 284 282 281 280 280 281 281 281 281 281 281 281 280 280 281 281 282 283 283 284 285 285 285 286 287 287 287 286 286 290 292 293 292 292 291
285 284 283 282 281 279 279 279 280 280 281 280 280 280 280 280 280 281 281 282 283 283 284 285 285 285 286 286 287 287 287 286 289 291 292 291 291 292
284 284 283 280 279 278 278 278 279 280 278 278 279 280 281 282 282 281 282 283 283 283 284 285 286 285 286 286 286 287 287 286 288 289 291 291 291 292
283 283 283 281 278 277 277 277 278 276 277 279 280 281 281 282 283 283 283 283 284 283 283 284 285 285 286 287 288 288 288 289 287 288 288 290 290 291
283 283 282 280 277 277 277 277 276 277 279 279 280 281 281 281 282 283 283 283 283 284 283 283 284 285 286 287 288 288 288 288 289 288 289 289 290 289
282 281 280 279 278 279 279 278 277 279 278 279 280 280 280 281 282 283 284 284 284 284 283 283 283 284 285 285 286 287 287 288 289 289 290 289 289 290
282 283 281 280 280 280 280 280 280 279 277 278 279 280 280 281 282 282 284 284 286 285 284 283 283 283 284 284 285 285 286 287 288 288 289 289 290 290
282 281 282 282 282 281 281 281 280 280 278 277 278 279 280 280 281 282 283 284 286 287 287 284 283 283 284 284 285 285 286 287 287 288 288 288 288 289
281 282 282 283 282 281 281 281 280 280 279 277 277 278 279 279 280 281 282 283 284 285 286 286 285 284 284 284 284 286 286 286 286 286 287 288 288 288
281 282 283 283 282 281 281 280 280 279 278 278 277 278 278 278 279 281 281 281 282 283 284 285 286 286 288 287 287 284 285 287 287 286 286 285 287 287
282 282 283 283 282 282 281 281 280 279 278 277 277 278 277 277 278 279 280 280 280 281 282 283 284 283 284 285 287 284 283 285 287 287 287 286 286 286
284 284 284 283 282 282 281 280 279 278 278 277 278 277 277 277 277 278 279 279 279 281 281 281 282 281 283 284 286 285 283 283 285 285 287 287 287 286
284 284 284 284 283 282 281 280 279 279 279 278 278 277 277 277 278 277 278 278 279 279 279 280 282 283 284 285 286 285 285 283 282 283 284 284 284 287
285 284 284 283 283 282 281 280 280 279 278 278 277 277 276 277 277 277 277 277 278 278 278 279 281 283 284 284 283 286 284 284 283 283 282 281 281 281
Wind_Speed
17 14 14 16 17 18 20 22 20 12 14 27 27 29 27 28 28 28 29 30 30 30 34 29 27 26 24 20 21 22 21 26 22 19 13 11 23 29
19 14 15 17 16 19 22 22 23 22 15 27 29 29 29 30 29 28 29 29 32 32 33 28 27 22 19 18 19 19 20 21 29 28 20 14 15 27
16 14 15 16 18 21 23 24 25 25 21 28 30 30 30 29 29 29 30 30 30 31 32 26 22 18 12 13 16 17 17 19 20 24 26 20 16 19
12 14 16 18 21 24 24 25 25 27 27 26 30 29 29 28 29 29 28 27 26 30 24 19 19 21 18 17 19 19 19 17 18 21 21 25 21 15
14 13 16 19 23 23 22 23 25 26 25 23 26 26 27 26 27 26 25 24 25 25 22 21 16 18 11 13 18 20 21 20 13 17 18 26 22 18
10 13 17 20 18 16 21 20 21 22 22 22 23 25 25 25 25 25 23 22 23 23 21 18 13 16 15 16 15 16 19 20 17 16 16 21 25 21
14 17 18 15 16 14 14 19 19 20 21 22 22 23 25 24 23 25 23 21 22 22 17 18 16 20 14 13 14 12 16 21 21 16 11 18 20 21
17 17 16 15 11 16 15 12 16 21 24 24 24 23 25 24 24 23 22 20 12 19 13 14 15 9 11 11 10 12 18 21 20 15 14 3 9 16
15 14 15 14 14 15 15 18 20 23 24 25 26 24 24 23 24 23 22 20 21 20 17 16 17 11 12 15 8 12 17 20 19 13 16 14 11 12
12 13 13 13 12 12 17 19 21 21 21 20 21 25 25 27 26 25 25 25 22 23 21 18 19 17 15 14 13 14 17 16 15 8 13 15 14 7
12 12 11 13 12 16 16 19 21 21 19 20 21 23 25 26 25 22 20 19 16 21 18 18 22 17 17 16 16 17 13 12 8 3 14 15 9 9
11 11 10 7 12 13 16 18 20 20 23 23 21 20 19 18 17 18 18 17 17 17 15 11 13 13 12 19 19 16 10 9 4 7 11 12 12 9
11 11 10 13 15 16 15 15 16 21 20 19 19 18 18 17 16 14 15 16 16 17 17 10 11 9 14 6 6 9 9 8 5 3 11 16 16 7
11 12 12 16 17 15 14 14 21 16 17 17 16 16 16 17 18 18 18 17 16 17 15 13 12 12 8 7 4 3 4 7 5 3 4 11 18 11
10 12 15 15 14 13 9 16 13 13 15 15 15 16 16 18 20 21 21 15 16 16 15 16 14 12 9 10 8 8 4 4 5 6 6 7 6 9
11 9 15 14 12 14 13 10 11 12 13 15 15 16 17 17 18 20 22 24 10 12 13 14 15 13 11 10 10 11 8 5 6 7 7 8 9 10
10 11 12 11 11 12 11 11 11 11 13 13 14 15 16 16 17 20 19 21 14 7 9 11 11 12 11 12 12 12 9 8 3 4 6 7 8 9
9 12 12 9 10 11 12 11 11 10 11 12 13 13 15 16 17 17 17 17 17 17 13 7 12 11 12 15 17 11 10 10 10 6 4 4 7 8
11 12 13 10 10 11 11 11 11 10 10 11 11 12 13 14 15 14 14 14 15 14 14 13 12 3 4 7 4 16 8 6 12 10 9 9 7 3
15 15 13 11 10 11 11 10 10 10 10 10 10 11 11 13 15 13 12 13 13 14 12 11 10 11 10 6 3 2 8 4 8 10 13 11 9 8
16 16 15 12 11 11 10 8 9 9 9 9 9 9 10 10 12 13 13 12 13 10 11 12 12 12 7 8 3 5 3 3 2 3 6 5 6 6
19 18 16 14 12 10 10 9 10 9 8 8 8 8 8 9 10 11 12 13 12 12 13 12 11 9 7 7 6 6 5 3 1 2 2 2 1 1
20 20 18 17 14 12 12 11 10 10 8 7 7 7 7 9 9 9 9 11 11 11 12 12 11 8 6 5 6 7 6 5 5 6 3 2 1 3
Wind_Direction
272 272 281 287 293 301 303 297 301 299 293 298 301 300 306 310 307 307 301 298 302 295 285 289 289 293 291 302 307 300 291 283 296 305 296 287 247 237
273 269 286 290 296 296 298 297 295 292 291 296 299 306 311 305 302 305 301 300 298 295 285 272 273 284 285 298 310 310 304 280 283 284 294 293 269 242
258 278 291 296 293 300 301 298 295 294 293 297 301 308 307 307 304 302 298 295 291 293 295 254 250 269 276 311 311 317 317 297 270 270 270 285 293 252
289 287 295 303 305 304 303 302 305 302 300 303 305 304 303 303 301 299 297 297 293 295 298 249 248 264 267 283 309 316 319 318 282 280 261 263 286 290
297 298 306 306 304 308 306 306 304 300 303 307 299 300 301 301 301 298 296 298 290 296 283 267 259 258 268 277 294 307 311 316 294 275 278 265 268 289
300 306 304 306 307 312 308 306 306 308 303 298 297 301 301 301 299 300 302 301 300 297 304 291 253 249 272 277 279 294 308 318 308 282 274 271 253 266
306 303 307 308 307 304 302 306 309 306 303 299 298 298 302 306 306 306 302 302 303 303 304 304 272 254 253 263 259 273 301 315 314 279 258 268 255 243
304 309 304 303 302 303 292 294 296 296 295 294 291 298 303 302 304 308 299 301 302 308 315 312 315 286 284 263 250 279 307 313 315 281 239 149 196 222
307 306 306 309 312 313 311 308 300 290 278 277 282 290 304 307 308 311 308 304 297 300 304 296 298 288 294 296 309 298 305 308 314 267 234 206 107 101
307 305 305 312 322 332 318 308 307 307 306 307 302 302 302 301 297 294 294 295 294 291 283 276 276 279 290 292 291 300 306 301 308 252 208 206 190 142
304 302 306 306 309 323 319 312 309 309 310 315 310 301 293 287 282 285 284 284 286 285 282 288 270 264 267 265 273 275 282 290 295 168 186 156 146 169
304 306 307 305 310 320 314 310 307 311 317 313 309 306 305 301 288 262 271 275 279 285 279 307 276 263 263 250 245 246 264 256 264 167 158 143 165 164
303 307 309 318 316 315 310 305 304 310 310 307 310 310 314 316 314 303 281 270 271 271 284 283 304 309 267 272 248 215 225 222 234 187 147 154 163 160
295 302 309 307 312 311 309 298 316 312 309 318 313 318 325 324 319 310 295 282 269 263 274 266 278 287 314 305 295 197 215 218 199 202 198 182 177 159
290 291 311 311 313 317 306 308 317 320 323 321 318 321 321 319 318 322 327 278 264 265 255 255 255 272 275 296 309 316 334 208 200 199 204 186 199 222
287 293 307 301 305 312 302 319 318 320 322 317 320 318 320 325 327 332 330 331 251 254 240 237 240 248 257 263 274 280 290 265 204 214 211 192 192 201
278 300 298 304 313 314 315 318 319 323 324 328 323 323 326 330 331 333 337 339 335 293 237 206 221 231 242 242 250 237 245 253 272 196 195 207 218 223
274 285 289 297 301 306 309 313 317 322 329 325 327 328 329 330 331 334 344 349 351 358 5 5 196 204 228 246 236 255 224 217 222 221 216 229 228 225
256 270 281 288 292 297 303 307 312 319 317 322 326 329 332 330 327 336 343 349 348 346 344 344 348 353 256 228 173 215 265 257 189 193 206 222 239 256
250 262 267 271 279 287 298 305 311 311 311 320 321 328 330 331 330 338 341 343 341 333 336 341 7 12 353 343 7 127 213 335 177 193 195 192 197 220
250 251 254 260 267 271 283 287 291 294 300 302 311 322 325 331 332 336 334 337 326 338 337 337 339 334 305 306 248 146 101 189 168 38 115 164 185 207
244 255 261 265 265 265 268 270 277 275 284 293 308 311 320 322 325 331 334 335 338 341 329 330 325 321 302 284 329 121 129 107 163 206 168 146 37 271
243 243 246 249 249 245 252 259 263 272 278 282 291 301 311 309 321 324 332 333 335 339 338 328 336 333 335 8 351 61 119 166 171 165 155 172 104 88